Radiation Dose at Monitoring Post of Fukushima Daini Nuclear Power Station
Date,Time,MP-1(microSv/h),MP-2(microSv/h),MP-3(microSv/h),MP-4(microSv/h),MP-5(microSv/h),MP-6(microSv/h),MP-7(microSv/h),Wind Direction,Wind Velocity(m/s),Rain
2022/11/14,00:00,0.158,0.145,0.231,0.221,0.218,0.127,0.080,west-northwest,10.6,No
2022/11/14,00:10,0.159,0.144,0.230,0.222,0.219,0.127,0.081,west-northwest,11.1,No
2022/11/14,00:20,0.158,0.145,0.232,0.222,0.217,0.127,0.080,northwest,7.9,No
2022/11/14,00:30,0.160,0.145,0.231,0.222,0.220,0.127,0.081,west-northwest,8.2,No
2022/11/14,00:40,0.159,0.145,0.232,0.222,0.217,0.127,0.080,northwest,10.1,No
2022/11/14,00:50,0.161,0.144,0.232,0.223,0.219,0.127,0.080,northwest,12.0,No
2022/11/14,01:00,0.159,0.144,0.231,0.221,0.219,0.127,0.080,northwest,14.4,No
2022/11/14,01:10,0.160,0.145,0.233,0.223,0.220,0.127,0.081,northwest,13.1,No
2022/11/14,01:20,0.159,0.144,0.231,0.223,0.219,0.126,0.081,northwest,12.8,No
2022/11/14,01:30,0.161,0.145,0.233,0.222,0.219,0.127,0.081,northwest,10.9,No
2022/11/14,01:40,0.160,0.145,0.232,0.221,0.219,0.127,0.081,northwest,9.6,No
2022/11/14,01:50,0.159,0.145,0.231,0.222,0.219,0.126,0.081,northwest,11.2,No
2022/11/14,02:00,0.161,0.146,0.233,0.223,0.219,0.127,0.081,northwest,7.9,No
2022/11/14,02:10,0.159,0.143,0.233,0.221,0.218,0.128,0.081,northwest,7.1,No
2022/11/14,02:20,0.160,0.145,0.231,0.222,0.220,0.128,0.081,northwest,6.4,No
2022/11/14,02:30,0.159,0.144,0.232,0.221,0.218,0.127,0.081,northwest,8.1,No
2022/11/14,02:40,0.160,0.144,0.232,0.221,0.218,0.127,0.080,northwest,8.1,No
2022/11/14,02:50,0.160,0.146,0.232,0.222,0.220,0.126,0.082,northwest,7.4,No
2022/11/14,03:00,0.160,0.145,0.231,0.222,0.219,0.126,0.081,northwest,6.5,No
2022/11/14,03:10,0.160,0.144,0.231,0.222,0.219,0.128,0.081,northwest,6.1,No
2022/11/14,03:20,0.160,0.144,0.232,0.222,0.219,0.127,0.080,northwest,11.5,No
2022/11/14,03:30,0.159,0.144,0.232,0.221,0.219,0.127,0.080,northwest,13.7,No
2022/11/14,03:40,0.158,0.145,0.232,0.222,0.220,0.127,0.082,northwest,12.3,No
2022/11/14,03:50,0.159,0.144,0.233,0.222,0.218,0.126,0.080,northwest,13.4,No
2022/11/14,04:00,0.160,0.144,0.231,0.222,0.220,0.127,0.080,northwest,10.4,No
2022/11/14,04:10,0.159,0.145,0.231,0.222,0.219,0.126,0.080,northwest,10.3,No
2022/11/14,04:20,0.159,0.145,0.231,0.222,0.218,0.127,0.080,northwest,12.3,No
2022/11/14,04:30,0.158,0.144,0.232,0.221,0.218,0.127,0.081,northwest,9.8,No
2022/11/14,04:40,0.160,0.145,0.230,0.222,0.217,0.126,0.081,northwest,11.7,No
2022/11/14,04:50,0.161,0.145,0.230,0.220,0.220,0.127,0.080,northwest,13.4,No
2022/11/14,05:00,0.159,0.144,0.232,0.222,0.219,0.127,0.081,northwest,12.0,No
2022/11/14,05:10,0.160,0.144,0.231,0.223,0.218,0.127,0.081,northwest,11.5,No
2022/11/14,05:20,0.160,0.145,0.232,0.222,0.219,0.127,0.081,northwest,11.7,No
2022/11/14,05:30,0.159,0.145,0.231,0.222,0.217,0.127,0.080,northwest,11.2,No
2022/11/14,05:40,0.159,0.145,0.231,0.222,0.219,0.127,0.081,northwest,12.0,No
2022/11/14,05:50,0.159,0.145,0.232,0.221,0.219,0.127,0.081,north-northwest,11.5,No
2022/11/14,06:00,0.159,0.145,0.231,0.223,0.219,0.127,0.081,northwest,12.2,No
2022/11/14,06:10,0.160,0.146,0.232,0.222,0.220,0.127,0.080,north-northwest,10.4,No
2022/11/14,06:20,0.159,0.145,0.231,0.221,0.219,0.128,0.081,northwest,9.8,No
2022/11/14,06:30,0.159,0.144,0.231,0.223,0.218,0.126,0.080,northwest,10.3,No
2022/11/14,06:40,0.159,0.145,0.231,0.222,0.220,0.128,0.080,northwest,10.4,No
2022/11/14,06:50,0.160,0.144,0.231,0.222,0.219,0.127,0.081,northwest,10.9,No
2022/11/14,07:00,0.159,0.144,0.232,0.222,0.220,0.127,0.081,north-northwest,7.6,No
2022/11/14,07:10,0.160,0.145,0.232,0.220,0.219,0.127,0.081,north-northwest,8.5,No
2022/11/14,07:20,0.160,0.144,0.232,0.222,0.218,0.127,0.081,northwest,8.7,No
2022/11/14,07:30,0.159,0.144,0.233,0.222,0.219,0.127,0.080,north-northwest,9.8,No
2022/11/14,07:40,0.159,0.144,0.233,0.220,0.217,0.128,0.080,north-northwest,11.1,No
2022/11/14,07:50,0.160,0.145,0.230,0.221,0.220,0.126,0.081,north-northwest,10.9,No
2022/11/14,08:00,0.159,0.146,0.232,0.222,0.219,0.127,0.081,north-northwest,8.1,No
2022/11/14,08:10,0.159,0.145,0.232,0.221,0.218,0.126,0.080,north-northwest,6.9,No
2022/11/14,08:20,0.160,0.144,0.232,0.222,0.220,0.127,0.081,north-northwest,8.5,No
2022/11/14,08:30,0.159,0.145,0.231,0.220,0.218,0.127,0.080,north-northwest,5.1,No
2022/11/14,08:40,0.160,0.144,0.232,0.223,0.219,0.127,0.081,north-northwest,7.0,No
2022/11/14,08:50,0.159,0.145,0.230,0.220,0.219,0.128,0.080,north-northwest,6.9,No
2022/11/14,09:00,0.159,0.143,0.231,0.222,0.218,0.127,0.080,north,6.6,No
2022/11/14,09:10,0.160,0.145,0.231,0.220,0.218,0.127,0.080,north-northwest,6.1,No
2022/11/14,09:20,0.159,0.144,0.230,0.222,0.219,0.126,0.080,north-northwest,5.3,No
2022/11/14,09:30,0.159,0.144,0.232,0.220,0.218,0.127,0.081,north-northwest,7.0,No
2022/11/14,09:40,0.159,0.144,0.231,0.223,0.218,0.126,0.080,north-northwest,7.7,No
2022/11/14,09:50,0.160,0.143,0.230,0.221,0.218,0.127,0.081,northwest,6.3,No
2022/11/14,10:00,0.159,0.145,0.232,0.222,0.218,0.126,0.081,north-northwest,6.1,No
2022/11/14,10:10,0.158,0.143,0.230,0.221,0.218,0.127,0.081,north-northwest,5.8,No
2022/11/14,10:20,0.159,0.144,0.232,0.222,0.218,0.126,0.080,north-northwest,6.0,No
2022/11/14,10:30,0.158,0.143,0.230,0.220,0.217,0.127,0.080,north,5.2,No
2022/11/14,10:40,0.158,0.144,0.232,0.222,0.219,0.126,0.080,north-northwest,5.0,No
2022/11/14,10:50,0.158,0.144,0.230,0.221,0.216,0.127,0.079,north,4.7,No
2022/11/14,11:00,0.158,0.144,0.231,0.221,0.218,0.127,0.080,north-northeast,6.5,No
2022/11/14,11:10,0.157,0.144,0.230,0.220,0.217,0.126,0.080,north-northeast,7.0,No
2022/11/14,11:20,0.158,0.143,0.231,0.221,0.217,0.127,0.080,northeast,5.9,No
2022/11/14,11:30,0.159,0.143,0.229,0.221,0.219,0.127,0.081,north-northeast,6.7,No
2022/11/14,11:40,0.159,0.144,0.230,0.220,0.216,0.127,0.080,north-northeast,5.4,No
2022/11/14,11:50,0.159,0.143,0.231,0.223,0.217,0.126,0.081,northeast,7.7,No
2022/11/14,12:00,0.158,0.144,0.231,0.220,0.219,0.127,0.080,north-northeast,7.4,No
2022/11/14,12:10,0.160,0.144,0.231,0.222,0.216,0.125,0.081,north-northeast,7.7,No
2022/11/14,12:20,0.158,0.144,0.230,0.221,0.217,0.126,0.080,northeast,6.7,No
2022/11/14,12:30,0.158,0.144,0.230,0.219,0.218,0.126,0.080,north-northeast,7.8,No
2022/11/14,12:40,0.158,0.145,0.229,0.222,0.217,0.126,0.081,north-northeast,7.2,No
2022/11/14,12:50,0.159,0.144,0.232,0.220,0.219,0.126,0.080,north-northeast,7.5,No
2022/11/14,13:00,0.157,0.144,0.231,0.222,0.217,0.127,0.081,north-northeast,6.4,No
2022/11/14,13:10,0.159,0.144,0.232,0.222,0.219,0.126,0.079,north-northeast,5.2,No
2022/11/14,13:20,0.158,0.144,0.230,0.220,0.219,0.127,0.079,north-northeast,7.3,No
2022/11/14,13:30,0.158,0.144,0.230,0.222,0.217,0.127,0.081,north-northeast,5.4,No
2022/11/14,13:40,0.158,0.143,0.231,0.219,0.218,0.127,0.081,north-northeast,6.6,No
2022/11/14,13:50,0.158,0.144,0.232,0.221,0.217,0.126,0.080,north,4.3,No
2022/11/14,14:00,0.159,0.145,0.231,0.221,0.218,0.127,0.080,north-northeast,6.4,No
2022/11/14,14:10,0.159,0.143,0.232,0.222,0.219,0.125,0.080,north,6.0,No
2022/11/14,14:20,0.159,0.145,0.232,0.221,0.220,0.126,0.080,north-northeast,6.0,No
2022/11/14,14:30,0.160,0.144,0.231,0.223,0.218,0.126,0.080,north-northeast,5.4,No
2022/11/14,14:40,0.158,0.145,0.233,0.221,0.220,0.126,0.079,north,4.9,No
2022/11/14,14:50,0.159,0.144,0.231,0.222,0.218,0.127,0.080,north,5.1,No
2022/11/14,15:00,0.158,0.144,0.231,0.221,0.218,0.125,0.080,north,4.3,No
2022/11/14,15:10,0.159,0.144,0.230,0.222,0.219,0.126,0.080,north,2.9,No
2022/11/14,15:20,0.158,0.143,0.230,0.222,0.218,0.126,0.080,north-northwest,3.0,No
2022/11/14,15:30,0.159,0.145,0.232,0.221,0.221,0.126,0.080,north-northwest,4.1,No
2022/11/14,15:40,0.158,0.145,0.231,0.223,0.217,0.126,0.080,north,3.3,No
2022/11/14,15:50,0.157,0.145,0.231,0.220,0.219,0.126,0.079,north-northwest,2.6,No
2022/11/14,16:00,0.159,0.143,0.231,0.222,0.218,0.127,0.080,northwest,2.9,No
2022/11/14,16:10,0.157,0.144,0.229,0.221,0.219,0.127,0.080,northwest,3.4,No
2022/11/14,16:20,0.158,0.144,0.230,0.222,0.218,0.127,0.080,northwest,3.3,No
2022/11/14,16:30,0.159,0.145,0.231,0.223,0.218,0.126,0.081,north-northwest,4.1,No
2022/11/14,16:40,0.158,0.145,0.230,0.220,0.218,0.126,0.080,north-northwest,3.8,No
2022/11/14,16:50,0.159,0.145,0.231,0.222,0.217,0.125,0.080,northwest,4.0,No
2022/11/14,17:00,0.158,0.144,0.231,0.222,0.219,0.126,0.080,northwest,4.7,No
2022/11/14,17:10,0.160,0.145,0.232,0.222,0.218,0.126,0.080,northwest,3.5,No
2022/11/14,17:20,0.159,0.145,0.231,0.222,0.219,0.126,0.080,northwest,3.6,No
2022/11/14,17:30,0.158,0.143,0.231,0.222,0.220,0.127,0.080,north-northwest,4.0,No
2022/11/14,17:40,0.160,0.143,0.231,0.221,0.218,0.127,0.079,north-northwest,3.8,No
2022/11/14,17:50,0.158,0.144,0.231,0.221,0.217,0.128,0.080,north-northwest,3.9,No
2022/11/14,18:00,0.159,0.144,0.232,0.221,0.217,0.127,0.080,northwest,3.7,No
2022/11/14,18:10,0.159,0.144,0.231,0.222,0.218,0.126,0.080,northwest,3.8,No
2022/11/14,18:20,0.159,0.145,0.232,0.222,0.218,0.127,0.080,northwest,3.9,No
2022/11/14,18:30,0.159,0.145,0.231,0.222,0.218,0.126,0.081,north-northwest,4.2,No
2022/11/14,18:40,0.157,0.144,0.231,0.221,0.218,0.126,0.079,north-northwest,3.9,No
2022/11/14,18:50,0.158,0.145,0.232,0.221,0.219,0.126,0.080,north-northwest,4.3,No
2022/11/14,19:00,0.159,0.144,0.230,0.222,0.218,0.126,0.080,north-northwest,4.0,No
2022/11/14,19:10,0.158,0.144,0.231,0.221,0.218,0.127,0.080,north-northwest,4.2,No
2022/11/14,19:20,0.157,0.144,0.231,0.222,0.218,0.127,0.080,north-northwest,4.9,No
2022/11/14,19:30,0.159,0.144,0.232,0.222,0.218,0.126,0.080,north-northwest,5.2,No
2022/11/14,19:40,0.158,0.143,0.231,0.222,0.218,0.127,0.080,north-northwest,4.8,No
2022/11/14,19:50,0.159,0.145,0.231,0.222,0.218,0.126,0.080,north-northwest,6.2,No
2022/11/14,20:00,0.159,0.144,0.231,0.223,0.217,0.126,0.080,northwest,5.7,No
2022/11/14,20:10,0.158,0.144,0.231,0.222,0.218,0.126,0.080,northwest,5.6,No
2022/11/14,20:20,0.159,0.145,0.231,0.222,0.218,0.127,0.080,northwest,6.0,No
2022/11/14,20:30,0.159,0.144,0.231,0.221,0.217,0.126,0.080,northwest,5.8,No
2022/11/14,20:40,0.159,0.144,0.231,0.223,0.218,0.127,0.080,northwest,6.2,No
2022/11/14,20:50,0.158,0.144,0.232,0.222,0.219,0.126,0.080,northwest,5.8,No
2022/11/14,21:00,0.158,0.145,0.232,0.222,0.219,0.126,0.081,northwest,5.6,No
2022/11/14,21:10,0.158,0.144,0.232,0.222,0.218,0.126,0.080,northwest,5.8,No
2022/11/14,21:20,0.159,0.144,0.232,0.222,0.218,0.126,0.081,northwest,5.4,No
2022/11/14,21:30,0.158,0.144,0.231,0.223,0.217,0.126,0.081,northwest,5.4,No
2022/11/14,21:40,0.158,0.144,0.229,0.221,0.219,0.126,0.080,northwest,5.4,No
2022/11/14,21:50,0.159,0.143,0.232,0.222,0.217,0.127,0.081,north-northwest,5.2,No
2022/11/14,22:00,0.159,0.144,0.232,0.222,0.218,0.126,0.081,north-northwest,5.6,No
2022/11/14,22:10,0.160,0.145,0.230,0.222,0.218,0.126,0.080,northwest,5.4,No
2022/11/14,22:20,0.159,0.144,0.231,0.221,0.218,0.126,0.081,northwest,5.8,No
2022/11/14,22:30,0.158,0.145,0.231,0.222,0.218,0.127,0.080,northwest,5.9,No
2022/11/14,22:40,0.159,0.144,0.230,0.222,0.218,0.126,0.080,northwest,5.7,No
2022/11/14,22:50,0.159,0.145,0.230,0.222,0.219,0.127,0.080,north-northwest,5.7,No
2022/11/14,23:00,0.158,0.144,0.231,0.221,0.218,0.127,0.081,northwest,5.4,No
2022/11/14,23:10,0.158,0.143,0.231,0.221,0.217,0.127,0.079,northwest,5.3,No
2022/11/14,23:20,0.159,0.144,0.232,0.221,0.217,0.127,0.081,north-northwest,5.9,No
2022/11/14,23:30,0.158,0.144,0.232,0.223,0.217,0.126,0.081,northwest,6.0,No
2022/11/14,23:40,0.158,0.145,0.230,0.221,0.218,0.127,0.080,northwest,5.9,No
2022/11/14,23:50,0.158,0.144,0.231,0.222,0.218,0.125,0.081,northwest,6.0,No
